Hourly Data Report for June 23, 2012

All times are specified in Local Standard Time (LST). Add 1 hour to adjust for Daylight Saving Time where and when it is observed.

MONCTON INTL A
NEW BRUNSWICK

46°06'44.000" N
64°40'43.000" W
70.70 m
8103201
71705
YQM

Download Data

Hourly Data (June 2012)
Hourly Data Report for June 23, 2012
Temp Definition
°C
Dew Point Temp Definition
°C
Rel Hum Definition
%
Wind Dir Definition
10's deg

Wind Spd Definition
km/h
Visibility Definition
km
Stn Press Definition
kPa
Hmdx Definition


Wind Chill Definition


Weather Definition


TIME
00:00 Legend Double Dagger 15.5 14.4 93 16 22 10.0 100.17     Rain Showers
01:00 Legend Double Dagger 14.8 14.2 96 17 22 10.0 100.15     Rain Showers
02:00 Legend Double Dagger 14.7 14.1 96 17 17 10.0 100.20     Rain Showers
03:00 Legend Double Dagger 14.3 13.7 96 16 15 10.0 100.18     LegendNANA
04:00 Legend Double Dagger 14.3 13.7 96 15 14 10.0 100.17     LegendNANA
05:00 Legend Double Dagger 14.4 13.6 95 16 15 10.0 100.21     Mostly Cloudy
06:00 Legend Double Dagger 14.9 13.8 93 16 17 10.0 100.24     LegendNANA
07:00 Legend Double Dagger 15.1 14.0 93 15 14 10.0 100.29     LegendNANA
08:00 Legend Double Dagger 15.2 13.9 92 15 15 10.0 100.30     Mostly Cloudy
09:00 Legend Double Dagger 15.2 13.6 90 16 13 10.0 100.33     LegendNANA
10:00 Legend Double Dagger 14.5 13.7 95 16 16 6.4 100.36     Rain,Fog
11:00 Legend Double Dagger 14.3 13.7 96 16 16 4.8 100.38     Rain,Fog
12:00 Legend Double Dagger 14.7 14.1 96 16 14 10.0 100.38     Rain
13:00 Legend Double Dagger 15.2 14.6 96 16 11 10.0 100.36     Rain
14:00 Legend Double Dagger 15.1 14.2 94 16 15 10.0 100.37     Rain
15:00 Legend Double Dagger 14.9 14.1 95 17 13 10.0 100.39     Rain
16:00 Legend Double Dagger 15.0 14.2 95 16 17 10.0 100.43     Rain
17:00 Legend Double Dagger 14.7 13.9 95 16 15 10.0 100.43     Rain
18:00 Legend Double Dagger 14.3 13.7 96 14 13 8.1 100.41     Rain,Fog
19:00 Legend Double Dagger 14.1 13.5 96 14 14 9.7 100.40     Rain,Fog
20:00 Legend Double Dagger 13.8 13.3 97 14 15 10.0 100.38     Rain
21:00 Legend Double Dagger 13.6 13.1 97 12 9 10.0 100.39     Rain
22:00 Legend Double Dagger 13.2 12.9 98 9 12 9.7 100.35     Rain,Fog
23:00 Legend Double Dagger 12.9 12.6 98 8 14 10.0 100.31     Rain

Notes on Data Quality.

Legend

  • E = Estimated
  • M = Missing
  • NA = Not Available
  • ‡ = Partner data that is not subject to review by the National Climate Archives
Date modified: